Retour au catalogue

STARLINK-32660

ActifCommunicationsVLEO
NORAD 62205·PAYLOAD·🇺🇸 United States

Lancé Dec 4, 2024 depuis Cape Canaveral Space Force Station

Loading…

Prochains Passages (prochaines 24 heures)

TLE

FraisSource: CelesTrak SupGP

Époque: Sep 15, 2026, 03:05 UTC

1 62205C 24229P   26258.12895833 -.00016814  00000+0 -60897-3 0  2588
2 62205  42.9999 266.6726 0001385 268.7372 224.2905 15.27588817    13

Suivez STARLINK-32660 en temps réel avec AllMySat

Download on the App Store